Regional Weather Roundup
Issued by NWS

Home | Current Version | Previous Version | Graphics & Text | Print | Product List | Glossary Off
Versions: 1 2 3 4 5 6 7 8 9 10 11 12 13 14 15 16 17 18 19 20 21 22 23 24 25 26 27 28 29 30 31 32 33 34 35 36 37 38 39 40 41 42 43 44 45 46 47 48 49 50

000
ASUS43 KLMK 231110
RWRKY
KENTUCKY REGIONAL WEATHER ROUNDUP
NATIONAL WEATHER SERVICE LOUISVILLE KY
600 AM EST THU NOV 23 2017

NOTE "FAIR" INDICATES FEW OR NO CLOUDS BELOW 12,000 FEET
WITH NO SIGNIFICANT WEATHER AND/OR OBSTRUCTIONS TO VISIBILITY.

KYZ001>023-026-027-061>063-070>075-231200-
WESTERN AND SOUTH CENTRAL KENTUCKY

CITY           SKY/WX    TMP DP  RH WIND       PRES   REMARKS
PADUCAH        CLOUDY    25  21  85 CALM      30.19F
HENDERSON      PTCLDY    26  24  92 CALM      30.20F
OWENSBORO      CLOUDY    29  25  85 CALM      30.20F
HOPKINSVILLE   CLOUDY    28  23  81 NW6       30.18S WCI  21
BOWLING GREEN  PTCLDY    24  22  91 SE3       30.19S
GLASGOW        PTCLDY    23  22  96 E3        30.18S
$$

KYZ024-025-028>034-038-045-046-053-231200-
NORTH CENTRAL KENTUCKY

CITY           SKY/WX    TMP DP  RH WIND       PRES   REMARKS
LOUISVILLE/SDF MOCLDY    30  25  81 CALM      30.20S
LOUISVILLE/LOU PTCLDY    26  25  96 CALM      30.20F
FORT KNOX      MOCLDY    23  20  91 CALM      30.17S
$$

KYZ035>037-039>044-047>052-055>060-089>105-231200-
NORTHEAST KENTUCKY

CITY           SKY/WX    TMP DP  RH WIND       PRES   REMARKS
LEXINGTON      CLOUDY    22  16  78 CALM      30.17F
COVINGTON      CLOUDY    24  24 100 CALM      30.18S
FRANKFORT      CLOUDY    22  17  81 CALM      30.18F
$$

KYZ054-064>069-076>088-106>120-231200-
SOUTHEAST KENTUCKY

CITY           SKY/WX    TMP DP  RH WIND       PRES   REMARKS
JACKSON        CLOUDY    26  21  81 VRB3      30.14F
LONDON         CLOUDY    26  21  81 CALM      30.16S
SOMERSET       CLOUDY    23  23 100 CALM      30.17F
MIDDLESBORO    CLEAR     24  24  97 CALM      30.17R
MONTICELLO     SUNNY     18  16  92 N8        30.17F WCI   8
$$




USA.gov is the U.S. government's official web portal to all federal, state and local government web resources and services.